Weather observations for the past three days for
Laredo, Laredo International Airport
Imperial (Metric)
Date Time (cdt) Wind (mph) Vis. (mi.) Weather Sky Cond. Temperature (ºF) Relative Humidity Wind Chill (°F) Heat Index (°F) Pressure Precipitation (in)
Air Dwpt 6 hour altimeter (in) sea level (mb) 1 hr 3 hr 6 hr
Max. Min.
15 21:56 SE 21 G 26 10.00 Fair and Breezy CLR 90 68 48% 94 29.79 1008.2
15 20:56 SE 21 G 30 10.00 Fair and Breezy CLR 93 70 47% 99 29.76 1007.3
15 19:56 SE 21 10.00 Mostly Cloudy and Breezy BKN080 97 69.1 40% 103 29.74 1006.5
15 18:56 SE 12 10.00 Partly Cloudy SCT100 100 64 102.9 95 31% 103 29.74 1006.4
15 17:56 E 8 10.00 A Few Clouds FEW085 102.9 64.9 29% 107 29.74 1006.4
15 16:56 SE 12 G 20 10.00 Fair CLR 102 64.9 30% 106 29.76 1007.3
15 15:56 Vrbl 5 10.00 Partly Cloudy SCT075 100.9 66 32% 105 29.79 1008.3
15 14:56 Vrbl 3 G 18 10.00 Partly Cloudy SCT070 99 68 37% 105 29.82 1009.2
15 13:56 S 13 G 20 10.00 A Few Clouds FEW060 98.1 69.1 39% 104 29.84 1010.1
15 12:56 SE 12 G 17 10.00 Fair CLR 97 69.1 97 79 40% 103 29.87 1011.2
15 11:56 S 8 10.00 A Few Clouds FEW048 93.9 70 46% 100 29.89 1011.7
15 10:56 S 10 10.00 Fair CLR 91 69.1 49% 96 29.9 1012.1
15 09:56 SE 9 10.00 Fair CLR 88 71.1 57% 94 29.91 1012.2
15 08:56 SE 12 10.00 Fair CLR 84 73.9 72% 91 29.91 1012.2
15 07:56 E 9 10.00 Fair CLR 81 73 77% 86 29.9 1012.1
15 06:56 E 7 10.00 Fair CLR 79 73 84 79 82% 82 29.89 1011.6
15 05:56 SE 5 10.00 Fair CLR 80.1 73 79% 84 29.89 1011.6
15 04:56 SE 6 10.00 Partly Cloudy SCT080 81 73 77% 86 29.89 1011.5
15 03:56 SE 12 10.00 Fair CLR 81 73 77% 86 29.88 1011.4
15 02:56 SE 12 10.00 A Few Clouds FEW070 82 73 74% 87 29.89 1011.8
15 01:56 SE 17 10.00 Overcast OVC065 84 73 70% 90 29.91 1012.2
15 00:56 SE 15 10.00 Fair CLR 84 73 102.9 84 70% 90 29.91 1012.4
14 23:56 SE 16 10.00 Fair CLR 86 72 63% 92 29.9 1012.1
14 22:56 E 20 G 25 10.00 Fair CLR 88 71.1 57% 94 29.88 1011.4
14 21:56 SE 20 G 26 10.00 Fair CLR 90 70 52% 95 29.85 1010.2
14 20:56 SE 17 G 24 10.00 Fair CLR 93.9 71.1 48% 101 29.82 1009.3
14 19:56 E 17 10.00 Partly Cloudy SCT110 98.1 70 40% 105 29.8 1008.5
14 18:56 SE 8 10.00 A Few Clouds FEW085 102 64.9 104 96.1 30% 106 29.79 1008.2
14 17:56 SE 5 10.00 Mostly Cloudy BKN100 100 64.9 32% 103 29.79 1008.4
14 16:56 Vrbl 6 10.00 Fair CLR 102.9 66 30% 108 29.81 1008.8
14 15:56 SE 7 10.00 A Few Clouds FEW095 102 64.9 30% 106 29.83 1009.5
14 14:56 SE 8 10.00 Partly Cloudy FEW070 SCT090 100 68 35% 106 29.85 1010.3
14 13:56 E 8 9.00 Partly Cloudy SCT065 98.1 68 38% 103 29.88 1011.3
14 12:56 SE 10 G 18 10.00 Fair CLR 97 68 97 79 39% 102 29.9 1012.0
14 11:56 SE 7 G 16 10.00 Fair CLR 93.9 70 46% 100 29.91 1012.5
14 10:56 SE 10 10.00 Fair CLR 91 70 50% 97 29.93 1013.0
14 09:56 SE 9 10.00 Fair CLR 89.1 73 59% 97 29.94 1013.4
14 08:56 SE 13 10.00 Fair CLR 86 73.9 67% 94 29.94 1013.1
14 07:56 E 9 10.00 Fair CLR 82 73.9 77% 88 29.92 1012.7
14 06:56 E 8 10.00 Fair CLR 79 73 84.9 79 82% 82 29.91 1012.2
14 05:56 E 7 10.00 Fair CLR 80.1 73 79% 84 29.9 1011.9
14 04:56 SE 8 10.00 Fair CLR 82 73 74% 87 29.88 1011.4
14 03:56 SE 8 10.00 Fair CLR 82 73 74% 87 29.89 1011.5
14 02:56 SE 9 10.00 Fair CLR 82.9 72 70% 88 29.89 1011.8
14 01:56 SE 13 10.00 Fair CLR 84 72 67% 90 29.89 1011.8
14 00:56 SE 17 10.00 Fair CLR 84.9 71.1 100 84.9 63% 90 29.89 1011.7
13 23:56 SE 14 G 22 10.00 Fair CLR 87.1 72 61% 94 29.89 1011.8
13 22:56 E 17 G 22 10.00 Fair CLR 89.1 72 57% 96 29.87 1011.2
13 21:56 E 21 G 25 10.00 Fair and Breezy CLR 93 73 52% 102 29.85 1010.2
13 20:56 NE 13 10.00 Mostly Cloudy BKN090 97 69.1 40% 103 29.82 1009.3
13 19:56 E 8 10.00 Fair CLR 99 68 37% 105 29.81 1009.0
13 18:56 E 9 10.00 Fair CLR 100 69.1 102.9 97 37% 107 29.81 1008.8
13 17:56 E 18 G 23 10.00 Fair CLR 102 69.1 35% 109 29.81 1008.7
13 16:56 SE 13 G 17 10.00 Fair CLR 102.9 69.1 34% 110 29.82 1009.2
13 15:56 E 6 10.00 A Few Clouds FEW070 100.9 70 37% 109 29.84 1009.8
13 14:56 Vrbl 7 10.00 Partly Cloudy SCT090 SCT110 99 70 39% 106 29.86 1010.6
13 13:56 Calm 10.00 Fair CLR 98.1 70 40% 105 29.88 1011.3
13 12:56 SE 9 9.00 Fair CLR 97 71.1 98.1 80.1 43% 105 29.9 1012.0
13 11:56 SE 10 8.00 Fair CLR 95 70 44% 101 29.92 1012.6
13 10:56 Vrbl 6 10.00 Fair CLR 91 73 56% 100 29.92 1012.8
13 09:56 S 9 10.00 Fair CLR 88 73.9 63% 97 29.92 1012.9
13 08:56 SE 10 10.00 Fair CLR 84.9 75 72% 93 29.92 1012.6
13 07:56 SE 7 10.00 Fair CLR 82 75 79% 89 29.9 1012.1
13 06:56 SE 9 10.00 Fair CLR 80.1 73 84.9 80.1 79% 84 29.87 1011.2
13 05:56 SE 10 10.00 Fair CLR 81 73 77% 86 29.86 1010.7
13 04:56 SE 9 10.00 Fair CLR 81 73 77% 86 29.86 1010.7
13 03:56 SE 12 10.00 Fair CLR 82 73 74% 87 29.85 1010.4
13 02:56 SE 12 10.00 Fair CLR 82.9 72 70% 88 29.86 1010.7
13 01:56 SE 10 10.00 Fair CLR 84 71.1 65% 89 29.87 1011.0
13 00:56 E 14 10.00 Fair CLR 84.9 71.1 102 84.9 63% 90 29.88 1011.3
12 23:56 E 10 10.00 Fair CLR 87.1 71.1 59% 93 29.88 1011.4
12 22:56 E 16 G 24 10.00 Fair CLR 88 72 59% 95 29.86 1010.7
Date Time (cdt) Wind (mph) Vis. (mi.) Weather Sky Cond. Air Dwpt Max. Min. Relative Humidity Wind Chill (°F) Heat Index (°F) altimeter (in) sea level (mb) 1 hr 3 hr 6 hr
6 hour
Temperature (ºF) Pressure Precipitation (in)